Time,TemperatureF,DewpointF,PressureIn,WindDirection,WindDirectionDegrees,WindSpeedMPH,WindSpeedGustMPH,Humidity,HourlyPrecipIn,Conditions,Clouds,dailyrainin,SoftwareType,DateUTC
2013-01-19 00:02:00,45.0,35.0,30.24,SW,225,2.0,6.0,69,0.00,,,0.00,,2013-01-19 06:02:00,
2013-01-19 00:12:00,45.0,35.0,30.24,SW,225,2.0,6.0,69,0.00,,,0.00,,2013-01-19 06:12:00,
2013-01-19 00:22:00,45.0,35.0,30.24,SW,225,2.0,6.0,69,0.00,,,0.00,,2013-01-19 06:22:00,
2013-01-19 00:32:00,44.0,36.0,30.24,SW,232,2.0,5.0,73,0.00,,,0.00,,2013-01-19 06:32:00,
2013-01-19 00:43:00,44.0,36.0,30.24,SW,232,2.0,5.0,73,0.00,,,0.00,,2013-01-19 06:43:00,
2013-01-19 00:53:00,43.0,36.0,30.24,SSW,212,1.0,5.0,75,0.00,,,0.00,,2013-01-19 06:53:00,
2013-01-19 01:02:00,43.0,36.0,30.24,WSW,243,2.0,6.0,77,0.00,,,0.00,,2013-01-19 07:02:00,
2013-01-19 01:12:00,43.0,36.0,30.24,WSW,243,2.0,6.0,77,0.00,,,0.00,,2013-01-19 07:12:00,
2013-01-19 01:22:00,43.0,37.0,30.23,SW,217,3.0,6.0,78,0.00,,,0.00,,2013-01-19 07:22:00,
2013-01-19 01:33:00,43.0,37.0,30.24,SW,229,1.0,5.0,79,0.00,,,0.00,,2013-01-19 07:33:00,
2013-01-19 01:42:00,43.0,37.0,30.24,SW,229,1.0,5.0,79,0.00,,,0.00,,2013-01-19 07:42:00,
2013-01-19 01:52:00,43.0,38.0,30.23,SSW,207,1.0,6.0,81,0.00,,,0.00,,2013-01-19 07:52:00,
2013-01-19 02:02:00,43.0,38.0,30.23,SW,221,2.0,5.0,81,0.00,,,0.00,,2013-01-19 08:02:00,
2013-01-19 02:12:00,43.0,38.0,30.23,SW,221,2.0,5.0,81,0.00,,,0.00,,2013-01-19 08:12:00,
2013-01-19 02:22:00,42.0,37.0,30.23,SSW,212,1.0,4.0,82,0.00,,,0.00,,2013-01-19 08:22:00,
2013-01-19 02:32:00,42.0,38.0,30.22,SW,218,2.0,5.0,84,0.00,,,0.00,,2013-01-19 08:32:00,
2013-01-19 02:42:00,42.0,38.0,30.22,SW,218,2.0,5.0,84,0.00,,,0.00,,2013-01-19 08:42:00,
2013-01-19 02:53:00,42.0,38.0,30.22,SSW,212,2.0,5.0,85,0.00,,,0.00,,2013-01-19 08:53:00,
2013-01-19 03:02:00,41.0,37.0,30.22,SSW,207,2.0,6.0,86,0.00,,,0.00,,2013-01-19 09:02:00,
2013-01-19 03:12:00,41.0,37.0,30.22,SSW,207,2.0,6.0,86,0.00,,,0.00,,2013-01-19 09:12:00,
2013-01-19 03:22:00,41.0,37.0,30.22,SSW,207,2.0,6.0,86,0.00,,,0.00,,2013-01-19 09:22:00,
2013-01-19 03:32:00,41.0,38.0,30.21,SW,215,3.0,9.0,88,0.00,,,0.00,,2013-01-19 09:32:00,
2013-01-19 03:42:00,41.0,38.0,30.21,SW,215,3.0,9.0,88,0.00,,,0.00,,2013-01-19 09:42:00,
2013-01-19 03:53:00,42.0,39.0,30.20,SW,215,3.0,8.0,89,0.00,,,0.00,,2013-01-19 09:53:00,
2013-01-19 04:02:00,42.0,39.0,30.19,SW,226,2.0,7.0,89,0.00,,,0.00,,2013-01-19 10:02:00,
2013-01-19 04:12:00,42.0,39.0,30.19,SW,226,2.0,7.0,89,0.00,,,0.00,,2013-01-19 10:12:00,
2013-01-19 04:22:00,41.0,38.0,30.18,SW,232,3.0,6.0,89,0.00,,,0.00,,2013-01-19 10:22:00,
2013-01-19 04:32:00,41.0,38.0,30.18,SSW,196,2.0,5.0,90,0.00,,,0.00,,2013-01-19 10:32:00,
2013-01-19 04:42:00,41.0,38.0,30.18,SSW,196,2.0,5.0,90,0.00,,,0.00,,2013-01-19 10:42:00,
2013-01-19 04:53:00,42.0,39.0,30.17,SSW,194,1.0,5.0,90,0.00,,,0.00,,2013-01-19 10:53:00,
2013-01-19 05:02:00,41.0,39.0,30.17,SSW,199,1.0,4.0,91,0.00,,,0.00,,2013-01-19 11:02:00,
2013-01-19 05:12:00,41.0,39.0,30.17,SSW,199,1.0,4.0,91,0.00,,,0.00,,2013-01-19 11:12:00,
2013-01-19 06:48:00,38.0,36.0,30.17,SSW,201,0.0,1.0,94,0.00,,,0.00,,2013-01-19 12:48:00,
2013-01-19 06:53:00,39.0,38.0,30.18,SSW,201,0.0,1.0,95,0.00,,,0.00,,2013-01-19 12:53:00,
2013-01-19 07:03:00,40.0,39.0,30.18,SW,215,0.0,1.0,96,0.00,,,0.00,,2013-01-19 13:03:00,
2013-01-19 07:12:00,40.0,39.0,30.18,SW,215,0.0,1.0,96,0.00,,,0.00,,2013-01-19 13:12:00,
2013-01-19 07:22:00,40.0,39.0,30.19,SW,215,0.0,1.0,96,0.00,,,0.00,,2013-01-19 13:22:00,
2013-01-19 07:33:00,41.0,40.0,30.19,SW,214,0.0,4.0,96,0.00,,,0.00,,2013-01-19 13:33:00,
2013-01-19 07:42:00,41.0,40.0,30.19,SW,214,0.0,4.0,96,0.00,,,0.00,,2013-01-19 13:42:00,
2013-01-19 07:53:00,41.0,40.0,30.19,SW,232,1.0,4.0,96,0.00,,,0.00,,2013-01-19 13:53:00,
2013-01-19 08:02:00,42.0,41.0,30.19,SW,229,1.0,4.0,97,0.00,,,0.00,,2013-01-19 14:02:00,
2013-01-19 08:12:00,42.0,41.0,30.19,SW,229,1.0,4.0,97,0.00,,,0.00,,2013-01-19 14:12:00,
2013-01-19 08:23:00,42.0,41.0,30.20,SW,224,1.0,7.0,96,0.00,,,0.00,,2013-01-19 14:23:00,
2013-01-19 08:33:00,42.0,41.0,30.20,SW,222,3.0,7.0,97,0.00,,,0.00,,2013-01-19 14:33:00,
2013-01-19 08:43:00,42.0,41.0,30.20,SW,222,3.0,7.0,97,0.00,,,0.00,,2013-01-19 14:43:00,
2013-01-19 08:53:00,43.0,42.0,30.20,SW,224,2.0,6.0,97,0.00,,,0.00,,2013-01-19 14:53:00,
2013-01-19 09:03:00,43.0,42.0,30.20,SW,224,2.0,6.0,97,0.00,,,0.00,,2013-01-19 15:03:00,
2013-01-19 09:12:00,43.0,42.0,30.20,SW,224,2.0,6.0,97,0.00,,,0.00,,2013-01-19 15:12:00,
2013-01-19 09:23:00,45.0,44.0,30.21,SSW,204,2.0,6.0,97,0.00,,,0.00,,2013-01-19 15:23:00,
2013-01-19 09:33:00,46.0,45.0,30.21,SW,229,3.0,8.0,97,0.00,,,0.00,,2013-01-19 15:33:00,
2013-01-19 09:43:00,46.0,45.0,30.21,SW,229,3.0,8.0,97,0.00,,,0.00,,2013-01-19 15:43:00,
2013-01-19 09:53:00,48.0,47.0,30.22,WNW,302,2.0,7.0,95,0.00,,,0.00,,2013-01-19 15:53:00,
2013-01-19 10:03:00,51.0,47.0,30.22,SW,222,2.0,8.0,87,0.00,,,0.00,,2013-01-19 16:03:00,
2013-01-19 10:13:00,51.0,47.0,30.22,SW,222,2.0,8.0,87,0.00,,,0.00,,2013-01-19 16:13:00,
2013-01-19 10:23:00,52.0,47.0,30.22,SSW,212,4.0,9.0,82,0.00,,,0.00,,2013-01-19 16:23:00,
2013-01-19 10:33:00,53.0,47.0,30.23,SW,215,3.0,11.0,79,0.00,,,0.00,,2013-01-19 16:33:00,
2013-01-19 10:43:00,53.0,47.0,30.23,SW,215,3.0,11.0,79,0.00,,,0.00,,2013-01-19 16:43:00,
2013-01-19 10:54:00,54.0,47.0,30.23,SSW,213,2.0,6.0,78,0.00,,,0.00,,2013-01-19 16:54:00,
2013-01-19 11:02:00,56.0,49.0,30.22,WSW,242,2.0,8.0,76,0.00,,,0.00,,2013-01-19 17:02:00,
2013-01-19 11:28:00,57.0,47.0,30.22,SE,141,3.0,8.0,70,0.00,,,0.00,,2013-01-19 17:28:00,
2013-01-19 11:35:00,58.0,47.0,30.21,SW,224,3.0,9.0,67,0.00,,,0.00,,2013-01-19 17:35:00,
2013-01-19 11:47:00,58.0,47.0,30.21,SW,224,3.0,9.0,67,0.00,,,0.00,,2013-01-19 17:47:00,
2013-01-19 11:54:00,59.0,48.0,30.20,WSW,250,2.0,8.0,68,0.00,,,0.00,,2013-01-19 17:54:00,
2013-01-19 12:09:00,60.0,47.0,30.19,WSW,248,3.0,9.0,62,0.00,,,0.00,,2013-01-19 18:09:00,
2013-01-19 12:25:00,61.0,47.0,30.18,SE,145,1.0,7.0,61,0.00,,,0.00,,2013-01-19 18:25:00,
2013-01-19 12:34:00,60.0,47.0,30.17,SW,224,2.0,9.0,62,0.00,,,0.00,,2013-01-19 18:34:00,
2013-01-19 13:07:00,61.0,47.0,30.15,SW,218,3.0,9.0,60,0.00,,,0.00,,2013-01-19 19:07:00,
2013-01-19 13:29:00,62.0,47.0,30.14,SSW,196,2.0,6.0,58,0.00,,,0.00,,2013-01-19 19:29:00,
2013-01-19 13:39:00,63.0,46.0,30.12,SW,217,2.0,8.0,54,0.00,,,0.00,,2013-01-19 19:39:00,
2013-01-19 13:45:00,63.0,46.0,30.12,SW,217,2.0,8.0,54,0.00,,,0.00,,2013-01-19 19:45:00,
2013-01-19 13:57:00,63.0,46.0,30.12,SW,217,2.0,8.0,54,0.00,,,0.00,,2013-01-19 19:57:00,
2013-01-19 14:09:00,64.0,45.0,30.11,West,269,2.0,8.0,50,0.00,,,0.00,,2013-01-19 20:09:00,
2013-01-19 14:18:00,64.0,45.0,30.11,West,269,2.0,8.0,50,0.00,,,0.00,,2013-01-19 20:18:00,
2013-01-19 14:25:00,65.0,46.0,30.10,South,190,2.0,7.0,51,0.00,,,0.00,,2013-01-19 20:25:00,
2013-01-19 14:38:00,66.0,46.0,30.10,SW,218,1.0,8.0,48,0.00,,,0.00,,2013-01-19 20:38:00,
2013-01-19 14:45:00,66.0,46.0,30.10,SW,218,1.0,8.0,48,0.00,,,0.00,,2013-01-19 20:45:00,
2013-01-19 14:58:00,68.0,46.0,30.09,SSW,210,2.0,6.0,46,0.00,,,0.00,,2013-01-19 20:58:00,
2013-01-19 15:05:00,67.0,46.0,30.09,WSW,246,2.0,8.0,46,0.00,,,0.00,,2013-01-19 21:05:00,
2013-01-19 15:14:00,67.0,46.0,30.09,WSW,246,2.0,8.0,46,0.00,,,0.00,,2013-01-19 21:14:00,
2013-01-19 15:25:00,67.0,45.0,30.09,SW,224,4.0,9.0,45,0.00,,,0.00,,2013-01-19 21:25:00,
2013-01-19 15:50:00,67.0,46.0,30.09,SSW,212,2.0,5.0,46,0.00,,,0.00,,2013-01-19 21:50:00,
2013-01-19 16:00:00,67.0,45.0,30.09,West,277,2.0,5.0,45,0.00,,,0.00,,2013-01-19 22:00:00,
2013-01-19 16:11:00,67.0,46.0,30.08,SW,235,3.0,7.0,46,0.00,,,0.00,,2013-01-19 22:11:00,
2013-01-19 16:17:00,67.0,46.0,30.08,SW,235,3.0,7.0,46,0.00,,,0.00,,2013-01-19 22:17:00,
2013-01-19 16:25:00,67.0,46.0,30.08,SSW,207,2.0,7.0,47,0.00,,,0.00,,2013-01-19 22:25:00,
2013-01-19 16:34:00,66.0,46.0,30.08,SW,234,1.0,6.0,48,0.00,,,0.00,,2013-01-19 22:34:00,
2013-01-19 16:58:00,65.0,45.0,30.08,SSW,208,2.0,5.0,48,0.00,,,0.00,,2013-01-19 22:58:00,
2013-01-19 17:11:00,63.0,44.0,30.09,SSW,207,3.0,7.0,49,0.00,,,0.00,,2013-01-19 23:11:00,
2013-01-19 17:25:00,62.0,44.0,30.09,WSW,256,1.0,3.0,52,0.00,,,0.00,,2013-01-19 23:25:00,
2013-01-19 17:34:00,61.0,44.0,30.09,SW,225,0.0,4.0,53,0.00,,,0.00,,2013-01-19 23:34:00,
2013-01-19 17:45:00,61.0,44.0,30.09,SW,225,0.0,4.0,53,0.00,,,0.00,,2013-01-19 23:45:00,
2013-01-19 18:07:00,60.0,44.0,30.09,SW,228,0.0,3.0,56,0.00,,,0.00,,2013-01-20 00:07:00,
2013-01-19 18:15:00,60.0,45.0,30.09,SSW,207,1.0,2.0,57,0.00,,,0.00,,2013-01-20 00:15:00,
2013-01-19 18:25:00,58.0,44.0,30.09,WSW,243,1.0,3.0,59,0.00,,,0.00,,2013-01-20 00:25:00,
2013-01-19 18:35:00,57.0,44.0,30.09,SW,235,0.0,3.0,61,0.00,,,0.00,,2013-01-20 00:35:00,
2013-01-19 18:45:00,57.0,44.0,30.09,SW,235,0.0,3.0,61,0.00,,,0.00,,2013-01-20 00:45:00,
2013-01-19 18:56:00,56.0,43.0,30.09,SW,225,1.0,2.0,62,0.00,,,0.00,,2013-01-20 00:56:00,
2013-01-19 19:03:00,55.0,43.0,30.09,SW,228,1.0,2.0,63,0.00,,,0.00,,2013-01-20 01:03:00,
2013-01-19 19:19:00,55.0,43.0,30.09,SW,228,1.0,2.0,63,0.00,,,0.00,,2013-01-20 01:19:00,
2013-01-19 19:25:00,54.0,43.0,30.09,SSW,212,1.0,3.0,65,0.00,,,0.00,,2013-01-20 01:25:00,
2013-01-19 19:35:00,54.0,43.0,30.10,SSW,212,1.0,3.0,65,0.00,,,0.00,,2013-01-20 01:35:00,
2013-01-19 19:45:00,54.0,43.0,30.10,SSW,212,1.0,3.0,65,0.00,,,0.00,,2013-01-20 01:45:00,
2013-01-19 20:03:00,53.0,42.0,30.11,SSW,212,1.0,3.0,66,0.00,,,0.00,,2013-01-20 02:03:00,
2013-01-19 20:14:00,53.0,42.0,30.11,WSW,240,1.0,3.0,66,0.00,,,0.00,,2013-01-20 02:14:00,
2013-01-19 20:35:00,52.0,42.0,30.12,SW,219,1.0,5.0,68,0.00,,,0.00,,2013-01-20 02:35:00,
2013-01-19 20:44:00,52.0,42.0,30.12,SW,219,1.0,5.0,68,0.00,,,0.00,,2013-01-20 02:44:00,
2013-01-19 20:58:00,52.0,42.0,30.12,SW,229,2.0,5.0,68,0.00,,,0.00,,2013-01-20 02:58:00,
2013-01-19 21:07:00,52.0,42.0,30.12,South,190,3.0,5.0,69,0.00,,,0.00,,2013-01-20 03:07:00,
2013-01-19 21:14:00,52.0,42.0,30.12,South,190,3.0,5.0,69,0.00,,,0.00,,2013-01-20 03:14:00,
2013-01-19 21:24:00,52.0,42.0,30.13,WSW,246,2.0,5.0,69,0.00,,,0.00,,2013-01-20 03:24:00,
2013-01-19 21:37:00,52.0,42.0,30.13,SW,235,2.0,5.0,69,0.00,,,0.00,,2013-01-20 03:37:00,
2013-01-19 21:45:00,52.0,42.0,30.13,SW,235,2.0,5.0,69,0.00,,,0.00,,2013-01-20 03:45:00,
2013-01-19 21:57:00,52.0,42.0,30.14,SW,229,1.0,5.0,69,0.00,,,0.00,,2013-01-20 03:57:00,
2013-01-19 22:04:00,52.0,42.0,30.14,SW,225,2.0,4.0,69,0.00,,,0.00,,2013-01-20 04:04:00,
2013-01-19 22:14:00,52.0,42.0,30.14,SW,225,2.0,4.0,69,0.00,,,0.00,,2013-01-20 04:14:00,
2013-01-19 22:25:00,51.0,42.0,30.14,SW,222,2.0,4.0,70,0.00,,,0.00,,2013-01-20 04:25:00,
2013-01-19 22:35:00,51.0,42.0,30.14,SW,222,2.0,4.0,70,0.00,,,0.00,,2013-01-20 04:35:00,
2013-01-19 22:44:00,51.0,42.0,30.14,SW,222,2.0,4.0,70,0.00,,,0.00,,2013-01-20 04:44:00,
2013-01-19 22:57:00,52.0,42.0,30.15,SW,221,1.0,4.0,68,0.00,,,0.00,,2013-01-20 04:57:00,
2013-01-19 23:03:00,53.0,42.0,30.15,SW,218,1.0,4.0,67,0.00,,,0.00,,2013-01-20 05:03:00,
2013-01-19 23:12:00,53.0,42.0,30.15,SW,218,1.0,4.0,67,0.00,,,0.00,,2013-01-20 05:12:00,
2013-01-19 23:22:00,53.0,42.0,30.15,SW,218,1.0,4.0,67,0.00,,,0.00,,2013-01-20 05:22:00,
2013-01-19 23:32:00,53.0,42.0,30.14,SSW,212,2.0,6.0,66,0.00,,,0.00,,2013-01-20 05:32:00,
2013-01-19 23:42:00,53.0,42.0,30.14,SSW,212,2.0,6.0,66,0.00,,,0.00,,2013-01-20 05:42:00,
2013-01-19 23:53:00,53.0,42.0,30.14,SSW,212,2.0,6.0,66,0.00,,,0.00,,2013-01-20 05:53:00,